CW4427 Weather Reports


Display with metric or nautical units.
time (UTC)temp
F
wind
direction
speed
MPH
gust
MPH
rain 1hr
in
rain 24hr
in
rain mn
in
humidity
%
barometer
mb
20260906232852 81 112 0.0 1.0 0.12 0.12 0.12 89 1010.0
20260906232352 81 128 0.0 2.0 0.12 0.12 0.12 88 1009.9
20260906230852 86 110 0.0 7.0 0.12 0.12 0.12 78 1009.8
20260906225852 94 313 4.0 11.0 0.08 0.08 0.08 63 1010.6
20260906225352 98 314 2.0 9.0 0.00 0.00 0.00 49 1010.1
20260906224352 98 44 3.0 11.0 0.00 0.00 0.00 48 1010.0
20260906223351 99 42 3.0 7.0 0.00 0.00 0.00 45 1009.7
20260906222852 99 30 1.0 9.0 0.00 0.00 0.00 45 1009.8
20260906222351 99 22 5.0 9.0 0.00 0.00 0.00 44 1010.0
20260906221851 99 29 3.0 9.0 0.00 0.00 0.00 44 1010.1
20260906221352 99 11 5.0 13.0 0.00 0.00 0.00 43 1009.9
20260906220851 99 355 2.0 13.0 0.00 0.00 0.00 42 1009.7
20260906220352 100 114 3.0 9.0 0.00 0.00 0.00 43 1009.7
20260906215852 100 87 2.0 10.0 0.00 0.00 0.00 43 1009.8
20260906215351 100 360 2.0 15.0 0.00 0.00 0.00 43 1009.7
20260906214851 100 40 3.0 15.0 0.00 0.00 0.00 43 1009.8
20260906214351 101 14 8.0 11.0 0.00 0.00 0.00 44 1009.8
20260906213851 101 15 8.0 10.0 0.00 0.00 0.00 43 1009.7
20260906213351 101 45 3.0 10.0 0.00 0.00 0.00 44 1009.8
20260906212851 101 360 3.0 9.0 0.00 0.00 0.00 43 1009.6
20260906212351 101 34 8.0 12.0 0.00 0.00 0.00 42 1009.5
20260906211351 101 261 3.0 11.0 0.00 0.00 0.00 41 1009.5
20260906210851 101 19 2.0 11.0 0.00 0.00 0.00 41 1009.6
20260906210351 101 360 3.0 10.0 0.00 0.00 0.00 41 1009.6
20260906205852 101 324 5.0 9.0 0.00 0.00 0.00 40 1009.6
20260906205351 101 22 2.0 10.0 0.00 0.00 0.00 40 1009.6
20260906204851 102 57 4.0 10.0 0.00 0.00 0.00 41 1009.8
20260906204351 101 184 4.0 9.0 0.00 0.00 0.00 42 1009.9
20260906203852 101 360 1.0 10.0 0.00 0.00 0.00 43 1009.9
20260906202851 100 36 7.0 10.0 0.00 0.00 0.00 43 1010.1
20260906202351 99 44 4.0 10.0 0.00 0.00 0.00 43 1010.1
20260906201851 100 329 3.0 10.0 0.00 0.00 0.00 41 1010.2
20260906200851 102 77 4.0 11.0 0.00 0.00 0.00 41 1010.3
20260906200351 101 5 5.0 10.0 0.00 0.00 0.00 43 1010.4
20260906195851 100 96 0.0 10.0 0.00 0.00 0.00 43 1010.3
20260906195351 100 323 3.0 13.0 0.00 0.00 0.00 43 1010.3
20260906194851 101 24 5.0 13.0 0.00 0.00 0.00 42 1010.4
20260906194351 101 11 7.0 11.0 0.00 0.00 0.00 42 1010.3
20260906192851 100 323 5.0 12.0 0.00 0.00 0.00 45 1010.3
20260906192351 101 317 2.0 11.0 0.00 0.00 0.00 44 1010.4
20260906191851 101 332 5.0 11.0 0.00 0.00 0.00 43 1010.6
20260906191351 101 316 6.0 12.0 0.00 0.00 0.00 45 1010.7
20260906190851 101 35 9.0 12.0 0.00 0.00 0.00 44 1011.0
20260906190351 101 26 6.0 10.0 0.00 0.00 0.00 45 1011.0
20260906185851 100 360 2.0 8.0 0.00 0.00 0.00 46 1011.1
20260906185351 100 305 4.0 13.0 0.00 0.00 0.00 45 1011.1
20260906184851 101 52 4.0 17.0 0.00 0.00 0.00 45 1011.1
20260906184351 101 259 3.0 17.0 0.00 0.00 0.00 44 1011.2
20260906183851 101 108 4.0 11.0 0.00 0.00 0.00 46 1011.2
20260906182851 101 324 2.0 11.0 0.00 0.00 0.00 46 1011.4
20260906181351 100 15 2.0 11.0 0.00 0.00 0.00 45 1011.6
20260906180851 100 23 4.0 11.0 0.00 0.00 0.00 45 1011.7
20260906180351 100 322 5.0 8.0 0.00 0.00 0.00 46 1011.8
20260906175851 100 355 2.0 12.0 0.00 0.00 0.00 45 1011.9
20260906174851 100 309 3.0 12.0 0.00 0.00 0.00 44 1012.0
20260906174351 100 137 4.0 12.0 0.00 0.00 0.00 44 1012.1
20260906173851 100 355 9.0 10.0 0.00 0.00 0.00 45 1012.2
20260906172851 100 297 2.0 10.0 0.00 0.00 0.00 44 1012.4
20260906172351 101 309 1.0 11.0 0.00 0.00 0.00 44 1012.5
20260906171851 100 18 8.0 11.0 0.00 0.00 0.00 45 1012.5
20260906171351 100 5 8.0 9.0 0.00 0.00 0.00 45 1012.5
20260906170351 99 316 1.0 10.0 0.00 0.00 0.00 45 1012.6
20260906165851 100 314 0.0 7.0 0.00 0.00 0.00 48 1012.4
20260906165351 100 152 2.0 7.0 0.00 0.00 0.00 52 1012.6
20260906164850 100 320 1.0 7.0 0.00 0.00 0.00 45 1012.6
20260906164351 100 250 5.0 5.0 0.00 0.00 0.00 48 1012.6
20260906163851 99 28 3.0 6.0 0.00 0.00 0.00 50 1012.7
20260906163351 99 21 3.0 6.0 0.00 0.00 0.00 48 1012.6
20260906162851 99 5 2.0 5.0 0.00 0.00 0.00 49 1012.8
20260906162351 99 305 1.0 6.0 0.00 0.00 0.00 55 1012.8
20260906161851 98 289 1.0 6.0 0.00 0.00 0.00 49 1012.9
20260906161351 98 46 2.0 5.0 0.00 0.00 0.00 52 1012.9
20260906160851 97 65 2.0 6.0 0.00 0.00 0.00 50 1012.8
20260906160350 97 5 2.0 6.0 0.00 0.00 0.00 51 1012.8
20260906155851 98 78 3.0 5.0 0.00 0.00 0.00 49 1012.9
20260906155351 97 360 1.0 5.0 0.00 0.00 0.00 49 1012.8
20260906154850 97 5 2.0 5.0 0.00 0.00 0.00 50 1012.8
20260906154350 96 319 1.0 5.0 0.00 0.00 0.00 50 1012.8
20260906153851 96 36 4.0 5.0 0.00 0.00 0.00 51 1012.7
20260906152851 96 107 3.0 4.0 0.00 0.00 0.00 54 1012.7
20260906151850 95 202 2.0 2.0 0.00 0.00 0.00 56 1012.8
20260906151351 94 348 0.0 2.0 0.00 0.00 0.00 56 1012.7
20260906150850 93 133 0.0 2.0 0.00 0.00 0.00 58 1012.7
20260906150351 93 132 2.0 2.0 0.00 0.00 0.00 58 1012.7
20260906145851 93 142 0.0 3.0 0.00 0.00 0.00 59 1012.7
20260906145350 93 49 1.0 3.0 0.00 0.00 0.00 58 1012.7
20260906144850 92 77 0.0 3.0 0.00 0.00 0.00 61 1012.7
20260906144350 92 208 1.0 3.0 0.00 0.00 0.00 60 1012.7
20260906143850 92 121 0.0 3.0 0.00 0.00 0.00 61 1012.9
20260906143350 91 110 0.0 3.0 0.00 0.00 0.00 62 1012.9
20260906141850 90 101 2.0 2.0 0.00 0.00 0.00 65 1013.0
20260906141350 90 18 0.0 5.0 0.00 0.00 0.00 64 1013.0
20260906140850 90 130 0.0 5.0 0.00 0.00 0.00 66 1012.9
20260906140350 90 194 1.0 3.0 0.00 0.00 0.00 67 1013.0
20260906135850 89 113 1.0 4.0 0.00 0.00 0.00 67 1013.0
20260906135351 88 107 2.0 6.0 0.00 0.00 0.00 66 1013.0
20260906134851 88 201 4.0 6.0 0.00 0.00 0.00 68 1013.1
20260906134350 88 182 3.0 5.0 0.00 0.00 0.00 69 1013.2
20260906133850 87 113 1.0 9.0 0.00 0.00 0.00 70 1013.3
20260906133350 87 217 0.0 9.0 0.00 0.00 0.00 70 1013.3
20260906132850 87 231 4.0 6.0 0.00 0.00 0.00 70 1013.3
20260906131850 85 98 0.0 6.0 0.00 0.00 0.00 72 1013.4
20260906131350 85 126 1.0 6.0 0.00 0.00 0.00 74 1013.3
20260906130350 82 129 0.0 3.0 0.00 0.00 0.00 80 1013.3
20260906125850 83 136 0.0 0.0 0.00 0.00 0.00 78 1013.2
20260906124350 81 118 1.0 4.0 0.00 0.00 0.00 83 1013.1
20260906123350 79 136 1.0 3.0 0.00 0.00 0.00 87 1013.2
20260906122350 78 165 0.0 2.0 0.00 0.00 0.00 90 1013.1
20260906121850 77 120 0.0 0.0 0.00 0.00 0.00 91 1013.1
20260906121350 77 33 0.0 0.0 0.00 0.00 0.00 90 1013.0
20260906120850 77 33 0.0 0.0 0.00 0.00 0.00 90 1012.8
20260906120350 77 33 0.0 0.0 0.00 0.00 0.00 91 1012.7
20260906115850 77 33 0.0 0.0 0.00 0.00 0.00 91 1012.7
20260906115350 77 33 0.0 0.0 0.00 0.00 0.00 90 1012.8
20260906114850 77 33 0.0 0.0 0.00 0.00 0.00 90 1012.7
20260906114350 77 33 0.0 0.0 0.00 0.00 0.00 90 1012.5
20260906113850 77 33 0.0 0.0 0.00 0.00 0.00 91 1012.5
20260906113350 77 33 0.0 0.0 0.00 0.00 0.00 91 1012.4
20260906112350 77 33 0.0 0.0 0.00 0.00 0.00 90 1012.3
20260906111850 77 33 0.0 0.0 0.00 0.00 0.00 90 1012.3
20260906111350 77 33 0.0 0.0 0.00 0.00 0.00 90 1012.3
20260906110850 77 33 0.0 0.0 0.00 0.00 0.00 90 1012.2
20260906110350 77 33 0.0 0.0 0.00 0.00 0.00 90 1012.2
20260906105850 77 33 0.0 0.0 0.00 0.00 0.00 90 1012.2
20260906105350 77 33 0.0 0.0 0.00 0.00 0.00 90 1012.0
20260906104850 77 33 0.0 0.0 0.00 0.00 0.00 89 1011.9
20260906104350 77 33 0.0 0.0 0.00 0.00 0.00 90 1011.9
20260906103850 77 33 0.0 0.0 0.00 0.00 0.00 90 1011.8
20260906102850 77 33 0.0 0.0 0.00 0.00 0.00 90 1011.7
20260906102350 77 33 0.0 0.0 0.00 0.00 0.00 90 1011.6
20260906101850 77 33 0.0 0.0 0.00 0.00 0.00 90 1011.7
20260906101350 78 33 0.0 0.0 0.00 0.00 0.00 90 1011.6
20260906100849 78 33 0.0 2.0 0.00 0.00 0.00 90 1011.6
20260906095850 77 33 0.0 2.0 0.00 0.00 0.00 91 1011.6
20260906095350 77 189 0.0 0.0 0.00 0.00 0.00 91 1011.6
20260906094350 77 189 0.0 0.0 0.00 0.00 0.00 90 1011.6
20260906093850 77 189 0.0 0.0 0.00 0.00 0.00 90 1011.6
20260906093350 77 189 0.0 0.0 0.00 0.00 0.00 89 1011.6
20260906092850 77 189 0.0 0.0 0.00 0.00 0.00 89 1011.6
20260906092350 77 189 0.0 0.0 0.00 0.00 0.00 89 1011.4
20260906091849 77 189 0.0 0.0 0.00 0.00 0.00 89 1011.4
20260906091349 77 189 0.0 0.0 0.00 0.00 0.00 89 1011.4
20260906090850 78 189 0.0 0.0 0.00 0.00 0.00 89 1011.5
20260906085850 78 189 0.0 0.0 0.00 0.00 0.00 89 1011.5
20260906085349 78 189 0.0 0.0 0.00 0.00 0.00 88 1011.6
20260906084850 78 189 0.0 0.0 0.00 0.00 0.00 88 1011.7
20260906084350 78 189 0.0 0.0 0.00 0.00 0.00 88 1011.5
20260906083849 78 189 0.0 0.0 0.00 0.00 0.00 88 1011.6
20260906083349 78 189 0.0 0.0 0.00 0.00 0.00 88 1011.5
20260906082849 78 189 0.0 0.0 0.00 0.00 0.00 87 1011.5
20260906082349 78 189 0.0 0.0 0.00 0.00 0.00 87 1011.5
20260906081849 78 189 0.0 0.0 0.00 0.00 0.00 87 1011.6
20260906081349 78 189 0.0 0.0 0.00 0.00 0.00 87 1011.6
20260906080849 78 189 0.0 0.0 0.00 0.00 0.00 87 1011.6
20260906075349 79 189 0.0 0.0 0.00 0.00 0.00 86 1011.6
20260906074349 79 189 0.0 0.0 0.00 0.00 0.00 86 1011.7
20260906073849 79 189 0.0 0.0 0.00 0.00 0.00 85 1011.6
20260906073349 79 189 0.0 0.0 0.00 0.00 0.00 85 1011.5
20260906072849 79 189 0.0 0.0 0.00 0.00 0.00 85 1011.5
20260906071849 79 189 0.0 0.0 0.00 0.00 0.00 85 1011.6
20260906071349 79 189 0.0 1.0 0.00 0.00 0.00 85 1011.5
20260906070850 79 189 0.0 1.0 0.00 0.00 0.00 85 1011.5
20260906070349 79 189 0.0 2.0 0.00 0.00 0.00 85 1011.4
20260906065849 79 189 0.0 4.0 0.00 0.00 0.00 85 1011.5
20260906065349 79 189 2.0 4.0 0.00 0.00 0.00 85 1011.4
20260906064849 79 73 0.0 0.0 0.00 0.00 0.00 85 1011.4
20260906064349 79 73 0.0 0.0 0.00 0.00 0.00 85 1011.3
20260906063849 79 74 0.0 0.0 0.00 0.00 0.00 85 1011.3
20260906063349 79 73 0.0 0.0 0.00 0.00 0.00 85 1011.4
20260906062349 79 73 0.0 0.0 0.00 0.00 0.00 85 1011.5
20260906061849 79 73 0.0 0.0 0.00 0.00 0.00 85 1011.5
20260906060849 79 73 0.0 0.0 0.00 0.00 0.00 84 1011.8
20260906060349 79 73 0.0 0.0 0.00 0.00 0.00 84 1011.8
20260906055849 79 73 0.0 0.0 0.00 0.00 0.00 84 1011.9
20260906055349 79 73 0.0 0.0 0.00 0.00 0.00 84 1011.9
20260906054849 80 73 0.0 0.0 0.00 0.00 0.00 84 1011.9
20260906053349 80 73 0.0 0.0 0.00 0.00 0.00 83 1011.9
20260906051849 80 73 0.0 0.0 0.00 0.00 0.00 83 1011.8
20260906051349 80 73 0.0 1.0 0.00 0.00 0.00 83 1011.7
20260906050849 80 73 0.0 1.0 0.00 0.00 0.00 83 1011.7
20260906050349 80 73 0.0 0.0 0.00 0.00 0.00 83 1011.8
20260906045849 80 74 0.0 0.0 0.00 0.00 0.00 83 1011.8
20260906045349 80 74 0.0 0.0 0.00 0.00 0.00 83 1011.6
20260906044848 80 74 0.0 0.0 0.00 0.00 0.00 83 1011.7
20260906044349 80 73 0.0 0.0 0.00 0.00 0.00 82 1011.6
20260906043849 80 73 0.0 0.0 0.00 0.00 0.00 82 1011.6
20260906043349 80 74 0.0 0.0 0.00 0.00 0.00 82 1011.5
20260906042848 81 73 0.0 0.0 0.00 0.00 0.00 82 1011.5
20260906042349 81 73 0.0 0.0 0.00 0.00 0.00 81 1011.5
20260906041849 81 73 0.0 0.0 0.00 0.00 0.00 81 1011.5
20260906041349 81 74 0.0 0.0 0.00 0.00 0.00 81 1011.6
20260906040348 81 74 0.0 0.0 0.00 0.00 0.00 80 1011.5
20260906035849 81 74 0.0 0.0 0.00 0.00 0.00 81 1011.5
20260906035348 81 73 0.0 0.0 0.00 0.00 0.00 80 1011.4
20260906034849 81 74 0.0 0.0 0.00 0.00 0.00 80 1011.5
20260906034349 81 73 0.0 0.0 0.00 0.00 0.00 80 1011.5
20260906033848 81 73 0.0 0.0 0.00 0.00 0.00 79 1011.6
20260906033348 81 73 0.0 0.0 0.00 0.00 0.00 79 1011.6
20260906032848 82 74 0.0 0.0 0.00 0.00 0.00 79 1011.8
20260906032348 82 73 0.0 0.0 0.00 0.00 0.00 78 1011.8
20260906031849 82 73 0.0 0.0 0.00 0.00 0.00 78 1011.6
20260906031349 82 73 0.0 0.0 0.00 0.00 0.00 78 1011.6
20260906030849 82 73 0.0 0.0 0.00 0.00 0.00 78 1011.7
20260906030349 82 74 0.0 0.0 0.00 0.00 0.00 77 1011.5
20260906025849 83 73 0.0 0.0 0.00 0.00 0.00 77 1011.5
20260906025348 83 74 0.0 0.0 0.00 0.00 0.00 76 1011.5
20260906024848 83 74 0.0 0.0 0.00 0.00 0.00 76 1011.5
20260906024348 83 74 0.0 0.0 0.00 0.00 0.00 75 1011.5
20260906023849 83 74 0.0 0.0 0.00 0.00 0.00 75 1011.5
20260906022848 83 74 0.0 0.0 0.00 0.00 0.00 75 1011.3
20260906021848 84 73 0.0 0.0 0.00 0.00 0.00 74 1011.2
20260906021348 84 73 0.0 0.0 0.00 0.00 0.00 74 1011.2
20260906020848 84 73 0.0 0.0 0.00 0.00 0.00 74 1011.2
20260906020348 84 74 0.0 0.0 0.00 0.00 0.00 74 1011.1
20260906015848 84 74 0.0 0.0 0.00 0.00 0.00 73 1011.0
20260906015348 84 74 0.0 0.0 0.00 0.00 0.00 72 1010.9
20260906014848 85 74 0.0 0.0 0.00 0.00 0.00 72 1011.0
20260906014348 85 73 0.0 0.0 0.00 0.00 0.00 71 1010.9
20260906013848 85 74 0.0 0.0 0.00 0.00 0.00 70 1010.9
20260906013348 85 74 0.0 0.0 0.00 0.00 0.00 70 1010.8
20260906012848 85 74 0.0 0.0 0.00 0.00 0.00 70 1010.6
20260906012348 85 73 0.0 0.0 0.00 0.00 0.00 69 1010.6
20260906011848 85 74 0.0 0.0 0.00 0.00 0.00 70 1010.5
20260906011348 86 74 0.0 0.0 0.00 0.00 0.00 68 1010.4
20260906010348 86 74 0.0 0.0 0.00 0.00 0.00 67 1010.3
20260906005848 87 74 0.0 0.0 0.00 0.00 0.00 66 1010.3
20260906005348 87 74 0.0 0.0 0.00 0.00 0.00 66 1010.3
20260906004848 88 74 0.0 0.0 0.00 0.00 0.00 65 1010.4
20260906004348 88 73 0.0 0.0 0.00 0.00 0.00 65 1010.4
20260906003848 88 74 0.0 0.0 0.00 0.00 0.00 65 1010.3
20260906002848 89 73 0.0 0.0 0.00 0.00 0.00 63 1010.3
20260906002348 89 74 0.0 0.0 0.00 0.00 0.00 62 1010.3
20260906001848 90 74 0.0 0.0 0.00 0.00 0.00 61 1010.4
20260906001348 90 74 0.0 0.0 0.00 0.00 0.00 60 1010.3
20260906000848 91 73 0.0 0.0 0.00 0.00 0.00 59 1010.3
20260906000348 91 73 0.0 0.0 0.00 0.00 0.00 58 1010.3
20260905235848 92 74 0.0 0.0 0.00 0.00 0.00 57 1010.3
20260905235348 92 73 0.0 0.0 0.00 0.00 0.00 58 1010.4
20260905234848 92 73 0.0 0.0 0.00 0.00 0.00 59 1010.4
20260905234348 93 73 0.0 0.0 0.00 0.00 0.00 57 1010.4
20260905233848 93 73 0.0 0.0 0.00 0.00 0.00 56 1010.5
20260905233348 95 73 0.0 0.0 0.00 0.00 0.00 54 1010.4